Location: Julian California
(33.0790°N, 116.6010°W)
Time: 14:56:20
(UTC-07:00)

Okean 1 - Pass Details

Date: 19 May 2017
Orbit: 540 x 559 km, 82.5° (Epoch: 24 May)

Event Time Altitude Azimuth Distance (km) Brightness Sun altitude
Exits shadow 20:41:28 - 168° (SSE) 1,930 5.7 -11.7°
Reaches altitude 10° 20:41:49 10° 167° (SSE) 1,794 5.5 -11.7°
Maximum altitude 20:45:36 47° 93° (E) 723 3.5 -12.4°
Drops below altitude 10° 20:49:24 10° 19° (NNE) 1,801 6.1 -13.1°
Sets 20:51:37 0° 14° (NNE) 2,697 7.1 -13.4°
